Regional Weather Roundup
Issued by NWS

Home | Current Version | Previous Version | Graphics & Text | Print | Product List | Glossary On
Versions: 1 2 3 4 5 6 7 8 9 10 11 12 13 14 15 16 17 18 19 20 21 22 23 24 25 26 27 28 29 30 31 32 33 34 35 36 37 38 39 40 41 42 43 44 45 46 47 48 49 50
000
ASUS43 KBIS 160110
RWRND

NORTH DAKOTA REGIONAL WEATHER ROUNDUP
NATIONAL WEATHER SERVICE BISMARCK ND
700 PM CST MON JAN 15 2018

NOTE: "FAIR" INDICATES FEW OR NO CLOUDS BELOW 12,000 FEET WITH NO
SIGNIFICANT WEATHER AND/OR OBSTRUCTIONS TO VISIBILITY.


NDZ001>003-009>011-017-160200-
NORTHWEST NORTH DAKOTA

CITY           SKY/WX    TMP DP  RH WIND       PRES   REMARKS
WILLISTON      CLOUDY   -17 -24  70 CALM      30.83F
MINOT          CLOUDY   -10 -17  71 SW6       30.83F WCI -23
MINOT AFB      CLOUDY   -18 -24  73 W9        30.83F WCI -38
$$

NDZ018>021-031>035-040>046-160200-
SOUTHWEST NORTH DAKOTA

CITY           SKY/WX    TMP DP  RH WIND       PRES   REMARKS
BISMARCK       CLOUDY    -9 -16  71 NW8       30.84F WCI -25
DICKINSON      CLOUDY   -15 -21  74 W7        30.73S WCI -31
GARRISON         N/A    -14 -21  71 NW10      30.80F WCI -34
HETTINGER ARPT CLOUDY   -15 -21  74 W9        30.74S WCI -34
$$

NDZ004>008-012>016-024-026-027-054-160200-
NORTHEAST NORTH DAKOTA

CITY           SKY/WX    TMP DP  RH WIND       PRES   REMARKS
GRAND FORKS    CLOUDY    -8 -13  78 N20G29    30.83R WCI -32
GRND FRKS AFB  FAIR     -10 -18  69 N14       30.84R WCI -32
DEVILS LAKE    FAIR     -13 -19  75 NW13      30.82R WCI -34
$$

NDZ022-023-025-028>030-036>039-047>053-160200-
SOUTHEAST NORTH DAKOTA

CITY           SKY/WX    TMP DP  RH WIND       PRES   REMARKS
FARGO          MIX PCPN  -9 -14  78 N23G31    30.80R VSB 1   WCI -35
JAMESTOWN      CLOUDY    -9 -15  75 N20       30.77R WCI -34
$$




USA.gov is the U.S. government's official web portal to all federal, state and local government web resources and services.